This demonstration page uses our WeatherBlox Daily Observations layout. Learn more.

Left ArrowRight Arrow

Hourly Observations for July 12, 2018

Temp ( °F °C ) Dew Point ( °F °C ) Humidity (%) Winds ( mph kmh ) Pressure ( in mb ) Visibility ( mi km ) Precip ( " mm )
12:17 am 00:17 Clear 64 18 63 17 94 94 E 5 7 30.18 1022 10 16.0934 N/A
12:36 am 00:36 Clear 64 18 63 17 94 94 E 5 7 30.18 1022 10 16.0934 N/A
12:57 am 00:57 Clear 64 18 63 17 94 94 ESE 5 7 30.18 1022 10 16.0934 N/A
1:16 am 01:16 Clear 64 18 61 16 88 88 ESE 6 9 30.18 1022 10 16.0934 N/A
1:37 am 01:37 Clear 64 18 61 16 88 88 E 5 7 30.18 1022 10 16.0934 N/A
1:56 am 01:56 Clear 64 18 61 16 88 88 E 3 6 30.18 1022 10 16.0934 N/A
2:17 am 02:17 Clear 63 17 61 16 94 94 E 3 6 30.18 1022 10 16.0934 N/A
2:37 am 02:37 Clear 63 17 61 16 94 94 N N/A 30.18 1022 10 16.0934 N/A
2:56 am 02:56 Clear 63 17 61 16 94 94 N N/A 30.18 1022 10 16.0934 N/A
3:17 am 03:17 Clear 61 16 59 15 94 94 N N/A 30.18 1022 10 16.0934 N/A
3:36 am 03:36 Clear 61 16 59 15 94 94 N N/A 30.18 1022 10 16.0934 N/A
3:57 am 03:57 Clear 57 14 57 14 100 100 N N/A 30.18 1022 10 16.0934 N/A
4:17 am 04:17 Clear 61 16 59 15 94 94 N N/A 30.18 1022 10 16.0934 N/A
4:36 am 04:36 Clear 59 15 57 14 94 94 N N/A 30.18 1022 10 16.0934 N/A
4:57 am 04:57 Clear 59 15 59 15 100 100 N N/A 30.18 1022 10 16.0934 N/A
5:16 am 05:16 Clear 59 15 59 15 100 100 N N/A 30.18 1022 10 16.0934 N/A
5:37 am 05:37 Clear 59 15 57 14 94 94 N N/A 30.18 1022 10 16.0934 N/A
5:56 am 05:56 Clear 57 14 57 14 100 100 N N/A 30.15 1021 10 16.0934 N/A
6:17 am 06:17 Clear 59 15 57 14 94 94 N N/A 30.18 1022 10 16.0934 N/A
6:36 am 06:36 Sunny 57 14 57 14 100 100 N N/A 30.18 1022 10 16.0934 N/A
6:56 am 06:56 Sunny 59 15 57 14 94 94 N N/A 30.18 1022 10 16.0934 N/A
7:17 am 07:17 Sunny 59 15 59 15 100 100 N N/A 30.18 1022 10 16.0934 N/A
7:36 am 07:36 Sunny 61 16 59 15 94 94 N N/A 30.18 1022 10 16.0934 N/A
7:57 am 07:57 Sunny 64 18 63 17 94 94 N N/A 30.18 1022 10 16.0934 N/A
8:17 am 08:17 Sunny 66 19 63 17 88 88 N N/A 30.18 1022 10 16.0934 N/A
8:36 am 08:36 Sunny 68 20 63 17 83 83 N N/A 30.18 1022 10 16.0934 N/A
8:57 am 08:57 Sunny 70 21 63 17 78 78 ESE 3 6 30.18 1022 10 16.0934 N/A
9:16 am 09:16 Sunny 72 22 63 17 73 73 SE 8 13 30.18 1022 10 16.0934 N/A
9:36 am 09:36 Sunny 72 22 63 17 73 73 ESE 7 11 30.18 1022 10 16.0934 N/A
9:57 am 09:57 Sunny 73 23 63 17 69 69 SE 8 13 30.15 1021 10 16.0934 N/A
10:16 am 10:16 Sunny 75 24 63 17 65 65 SE 5 7 30.15 1021 10 16.0934 N/A
10:37 am 10:37 Sunny 75 24 64 18 69 69 SE 7 11 30.15 1021 10 16.0934 N/A
10:56 am 10:56 Sunny 77 25 64 18 65 65 SSE 7 11 30.15 1021 10 16.0934 N/A
11:16 am 11:16 Sunny 77 25 64 18 65 65 SE 6 9 30.18 1022 10 16.0934 N/A
11:37 am 11:37 Sunny 77 25 64 18 65 65 SSE 3 6 30.18 1022 10 16.0934 N/A
11:56 am 11:56 Sunny 77 25 64 18 65 65 E 6 9 30.18 1022 10 16.0934 N/A
12:16 pm 12:16 Sunny 79 26 64 18 61 61 ESE 7 11 30.18 1022 10 16.0934 N/A
12:37 pm 12:37 Sunny 79 26 64 18 61 61 E 8 13 30.18 1022 10 16.0934 N/A
12:56 pm 12:56 Sunny 79 26 64 18 61 61 ENE 8 13 30.18 1022 10 16.0934 N/A
1:17 pm 13:17 Sunny 79 26 64 18 61 61 E 5 7 30.18 1022 10 16.0934 N/A
1:36 pm 13:36 Sunny 79 26 64 18 61 61 ENE 9 15 30.15 1021 10 16.0934 N/A
1:56 pm 13:56 Sunny 81 27 64 18 58 58 ENE 9 15 30.15 1021 10 16.0934 N/A
2:17 pm 14:17 Sunny 81 27 64 18 58 58 E 8 13 30.15 1021 10 16.0934 N/A
2:36 pm 14:36 Sunny 81 27 64 18 58 58 ESE 6 9 30.15 1021 10 16.0934 N/A
2:57 pm 14:57 Sunny 81 27 66 19 62 62 E 8 13 30.15 1021 10 16.0934 N/A
3:17 pm 15:17 Sunny 81 27 64 18 58 58 ENE 10 17 30.15 1021 10 16.0934 N/A
3:36 pm 15:36 Sunny 81 27 64 18 58 58 ENE 5 7 30.15 1021 10 16.0934 N/A
3:57 pm 15:57 Sunny 82 28 64 18 55 55 E 8 13 30.15 1021 10 16.0934 N/A
4:16 pm 16:16 Sunny 82 28 63 17 51 51 NE 5 7 30.15 1021 10 16.0934 N/A
4:37 pm 16:37 Sunny 81 27 64 18 58 58 E 6 9 30.15 1021 10 16.0934 N/A
4:57 pm 16:57 Sunny 82 28 66 19 58 58 NNE 5 7 30.15 1021 10 16.0934 N/A
5:16 pm 17:16 Sunny 82 28 64 18 55 55 N 3 6 30.15 1021 10 16.0934 N/A
5:37 pm 17:37 Sunny 81 27 66 19 62 62 NNE 6 9 30.15 1021 10 16.0934 N/A
5:56 pm 17:56 Sunny 82 28 64 18 55 55 ENE 3 6 30.15 1021 10 16.0934 N/A
6:17 pm 18:17 Sunny 81 27 64 18 58 58 ENE 5 7 30.15 1021 10 16.0934 N/A
6:37 pm 18:37 Sunny 81 27 66 19 62 62 NE 7 11 30.15 1021 10 16.0934 N/A
6:56 pm 18:56 Sunny 81 27 66 19 62 62 ENE 5 7 30.15 1021 10 16.0934 N/A
7:17 pm 19:17 Sunny 81 27 66 19 62 62 E 3 6 30.15 1021 10 16.0934 N/A
7:36 pm 19:36 Sunny 81 27 66 19 62 62 E 3 6 30.12 1020 10 16.0934 N/A
7:56 pm 19:56 Sunny 79 26 68 20 70 70 E 5 7 30.12 1020 10 16.0934 N/A
8:17 pm 20:17 Sunny 79 26 68 20 70 70 N N/A 30.12 1020 10 16.0934 N/A
8:36 pm 20:36 Sunny 75 24 68 20 78 78 ESE 3 6 30.12 1020 10 16.0934 N/A
8:57 pm 20:57 Sunny 75 24 66 19 74 74 N N/A 30.12 1020 10 16.0934 N/A
9:17 pm 21:17 Clear 70 21 68 20 94 94 N N/A 30.15 1021 10 16.0934 N/A
9:36 pm 21:36 Clear 70 21 66 19 88 88 SE 3 6 30.15 1021 10 16.0934 N/A
9:57 pm 21:57 Clear 70 21 66 19 88 88 ESE 3 6 30.15 1021 10 16.0934 N/A
10:16 pm 22:16 Clear 68 20 64 18 88 88 ESE 3 6 30.15 1021 10 16.0934 N/A
10:37 pm 22:37 Clear 68 20 64 18 88 88 ESE 6 9 30.15 1021 10 16.0934 N/A
10:57 pm 22:57 Clear 66 19 64 18 94 94 ESE 3 6 30.15 1021 10 16.0934 N/A
11:16 pm 23:16 Clear 66 19 64 18 94 94 N N/A 30.18 1022 10 16.0934 N/A
11:37 pm 23:37 Clear 66 19 64 18 94 94 N N/A 30.18 1022 10 16.0934 N/A
11:56 pm 23:56 Clear 64 18 63 17 94 94 N N/A 30.18 1022 10 16.0934 N/A

Powered by AerisWeather